Weather History for Fort Huachuca, AZ

Change the Weather History Date:

Sunday, May 5, 2013

  Actual Average (KFHU) Record (KFHU)
Temperature  
Mean Temperature 70 °F -  
Max Temperature 79 °F 80 °F 95 °F (1989)
Min Temperature 59 °F 57 °F 45 °F (1982)
Cooling Degree Days 5    
Growing Degree Days 20 (Base 50)    
Moisture  
Dew Point 24 °F    
Average Humidity 20    
Maximum Humidity 44    
Minimum Humidity 9    
Precipitation  
Precipitation 0.00 in - - ()
Sea Level Pressure  
Sea Level Pressure 29.79 in    
Wind  
Wind Speed 13 mph (SW)    
Max Wind Speed 28 mph    
Max Gust Speed 37 mph    
Visibility 10 miles    
Events Rain    
Averages and records for this station are not official NWS values.
T = Trace of Precipitation, MM = Missing Value Source: NWS Daily Summary

Daily Weather History Graph

Daily Weather History Graph

Search for Another Location

Airport:

Trip Planner

Search our weather history database for the weather conditions in past years. The results will help you decide how hot, cold, wet, or windy it might be!

Date:

Astronomy

May. 05, 2013 Rise Set
Actual Time 5:32 AM MST 7:04 PM MST
Civil Twilight 5:06 AM MST 7:30 PM MST
Nautical Twilight 4:35 AM MST 8:02 PM MST
Astronomical Twilight 4:02 AM MST 8:35 PM MST
Moon 2:49 AM MST (5/5) 3:21 PM MST (5/5)
Length of Visible Light 14h 24m
Length of Day
13h 32m
Waning Crescent, 17% of the Moon is Illuminated
May 5
Waning Crescent
May 9
New
May 17
First Quarter
May 24
Full
May 31
Last Quarter

Hourly Weather History & Observations

Time (MST) Temp. Dew Point Humidity Pressure Visibility Wind Dir Wind Speed Gust Speed Precip Events Conditions
12:56 AM 64.0 °F 30.0 °F 28% 29.75 in 10.0 mi SW 13.8 mph 17.3 mph N/A   Clear
1:56 AM 64.0 °F 27.0 °F 25% 29.75 in 10.0 mi Variable 6.9 mph - N/A   Clear
2:56 AM 63.0 °F 19.9 °F 19% 29.76 in 10.0 mi Variable 5.8 mph - N/A   Clear
3:56 AM 61.0 °F 19.0 °F 20% 29.77 in 10.0 mi North - - N/A   Clear
4:56 AM 62.1 °F 21.9 °F 21% 29.76 in 10.0 mi Variable 4.6 mph 20.7 mph N/A   Clear
5:56 AM 61.0 °F 21.9 °F 22% 29.80 in 10.0 mi SSW 9.2 mph - N/A   Clear
6:56 AM 64.0 °F 23.0 °F 21% 29.82 in - SSW 8.1 mph - N/A   Clear
7:56 AM 64.9 °F 24.1 °F 21% 29.84 in 10.0 mi South 9.2 mph 19.6 mph N/A   Clear
8:56 AM 66.0 °F 26.1 °F 22% 29.85 in 10.0 mi SSW 8.1 mph 24.2 mph N/A   Clear
9:56 AM 71.1 °F 26.1 °F 19% 29.83 in 10.0 mi SSW 18.4 mph 25.3 mph N/A   Clear
10:56 AM 73.9 °F 25.0 °F 16% 29.81 in 10.0 mi SW 17.3 mph 28.8 mph N/A   Clear
11:56 AM 78.1 °F 19.9 °F 11% 29.79 in 10.0 mi SSW 19.6 mph 29.9 mph N/A   Partly Cloudy
12:56 PM 78.1 °F 25.0 °F 14% 29.78 in 10.0 mi SSW 17.3 mph 27.6 mph N/A   Clear
1:27 PM 78.8 °F 19.4 °F 11% 30.03 in 10.0 mi SW 20.7 mph 32.2 mph N/A   Clear
1:56 PM 77.0 °F 19.0 °F 11% 29.76 in 10.0 mi SSW 20.7 mph 33.4 mph N/A   Clear
2:56 PM 79.0 °F 16.0 °F 9% 29.73 in 10.0 mi SW 19.6 mph 28.8 mph N/A   Clear
3:56 PM 77.0 °F 18.0 °F 11% 29.74 in 10.0 mi SW 16.1 mph 29.9 mph N/A   Partly Cloudy
4:56 PM 75.0 °F 19.9 °F 13% 29.74 in 10.0 mi SW 18.4 mph 29.9 mph N/A   Clear
5:56 PM 73.0 °F 28.0 °F 19% 29.73 in 10.0 mi SSW 19.6 mph 28.8 mph N/A   Clear
6:56 PM 70.0 °F 28.0 °F 21% 29.74 in 10.0 mi SW 16.1 mph 24.2 mph N/A   Clear
7:56 PM 69.1 °F 27.0 °F 21% 29.77 in 10.0 mi SW 18.4 mph - N/A   Clear
8:56 PM 68.0 °F 30.0 °F 24% 29.77 in 10.0 mi SW 21.9 mph 33.4 mph N/A   Clear
9:56 PM 66.0 °F 25.0 °F 21% 29.77 in 10.0 mi WSW 21.9 mph 29.9 mph N/A   Scattered Clouds
10:56 PM 63.0 °F 28.0 °F 27% 29.80 in 10.0 mi WSW 5.8 mph - N/A   Overcast
11:56 PM 59.0 °F 37.0 °F 44% 29.83 in 10.0 mi SW 27.6 mph 36.8 mph 0.00 in Rain Light Rain